FW1304 Weather Reports


Display with metric or nautical units.
time (UTC)temp
F
wind
direction
speed
MPH
gust
MPH
rain 1hr
in
rain 24hr
in
rain mn
in
humidity
%
barometer
mb
20260505002830 50 298 0.0 6.0 0.00 0.00 0.00 40 1002.3
20260505002347 50 337 0.0 6.0 0.00 0.00 0.00 40 1002.2
20260505001814 50 293 1.0 6.0 0.00 0.00 0.00 41 1002.2
20260505001314 50 281 0.0 8.0 0.00 0.00 0.00 40 1002.2
20260505000832 50 322 1.0 8.0 0.00 0.00 0.00 41 1002.2
20260505000345 50 308 1.0 6.0 0.00 0.00 0.00 41 1002.0
20260504235827 50 281 1.0 6.0 0.00 0.00 0.00 42 1002.0
20260504235314 50 290 0.0 7.0 0.00 0.00 0.00 42 1001.9
20260504234831 51 301 0.0 7.0 0.00 0.00 0.00 43 1001.9
20260504234314 51 286 1.0 14.0 0.00 0.00 0.00 42 1001.9
20260504233822 51 307 2.0 14.0 0.00 0.00 0.00 41 1001.8
20260504233318 51 344 0.0 7.0 0.00 0.00 0.00 42 1001.6
20260504232822 52 300 1.0 7.0 0.00 0.00 0.00 41 1001.6
20260504232339 52 300 1.0 5.0 0.00 0.00 0.00 40 1001.4
20260504231827 52 318 1.0 7.0 0.00 0.00 0.00 39 1001.4
20260504231330 53 314 1.0 7.0 0.00 0.00 0.00 39 1001.2
20260504230818 52 323 1.0 6.0 0.00 0.00 0.00 39 1001.2
20260504230314 53 335 1.0 5.0 0.00 0.00 0.00 39 1001.2
20260504225817 53 309 0.0 7.0 0.00 0.00 0.00 39 1001.2
20260504225334 53 327 1.0 7.0 0.00 0.00 0.00 40 1001.1
20260504224821 53 14 1.0 6.0 0.00 0.00 0.00 39 1001.0
20260504224325 53 355 0.0 4.0 0.00 0.00 0.00 39 1000.9
20260504223841 54 305 1.0 4.0 0.00 0.00 0.00 39 1000.9
20260504223327 54 279 1.0 5.0 0.00 0.00 0.00 39 1000.7
20260504222823 54 339 1.0 5.0 0.00 0.00 0.00 39 1000.8
20260504222340 54 298 0.0 7.0 0.00 0.00 0.00 40 1000.6
20260504221831 54 344 0.0 7.0 0.00 0.00 0.00 41 1000.4
20260504221335 54 308 1.0 8.0 0.00 0.00 0.00 38 1000.4
20260504220822 54 317 0.0 8.0 0.00 0.00 0.00 40 1000.4
20260504220318 54 311 1.0 6.0 0.00 0.00 0.00 39 1000.4
20260504215821 54 309 0.0 5.0 0.00 0.00 0.00 39 1000.4
20260504215358 54 302 0.0 5.0 0.00 0.00 0.00 39 1000.3
20260504214826 54 244 0.0 5.0 0.00 0.00 0.00 41 1000.1
20260504214325 54 346 1.0 6.0 0.00 0.00 0.00 41 1000.1
20260504213842 54 270 1.0 6.0 0.00 0.00 0.00 41 1000.0
20260504213337 54 360 1.0 5.0 0.00 0.00 0.00 40 1000.0
20260504212839 54 317 1.0 5.0 0.00 0.00 0.00 41 1000.0
20260504212336 54 289 1.0 9.0 0.00 0.00 0.00 41 1000.0
20260504211822 55 9 2.0 9.0 0.00 0.00 0.00 40 999.9
20260504211322 55 319 1.0 7.0 0.00 0.00 0.00 41 999.8
20260504210838 55 336 0.0 7.0 0.00 0.00 0.00 41 999.7
20260504210325 55 303 0.0 6.0 0.00 0.00 0.00 41 999.9
20260504205821 55 293 1.0 6.0 0.00 0.00 0.00 41 999.7
20260504205318 55 317 1.0 6.0 0.00 0.00 0.00 40 999.6
20260504204822 56 316 1.0 6.0 0.00 0.00 0.00 39 999.6
20260504204348 57 319 1.0 5.0 0.00 0.00 0.00 39 999.4
20260504203815 56 298 0.0 4.0 0.00 0.00 0.00 43 999.3
20260504203332 57 272 1.0 6.0 0.00 0.00 0.00 39 999.4
20260504202814 57 235 1.0 6.0 0.00 0.00 0.00 42 999.2
20260504202332 57 314 1.0 5.0 0.00 0.00 0.00 41 999.2
20260504201818 57 309 1.0 5.0 0.00 0.00 0.00 42 999.2
20260504201321 56 294 1.0 5.0 0.00 0.00 0.00 41 999.1
20260504200837 57 306 0.0 5.0 0.00 0.00 0.00 41 999.2
20260504200325 57 336 1.0 7.0 0.00 0.00 0.00 41 999.2
20260504195820 57 296 0.0 7.0 0.00 0.00 0.00 44 999.0
20260504195337 57 304 1.0 7.0 0.00 0.00 0.00 41 999.0
20260504194832 57 304 1.0 5.0 0.00 0.00 0.00 43 999.0
20260504194336 57 302 0.0 5.0 0.00 0.00 0.00 44 998.8
20260504193824 58 344 1.0 6.0 0.00 0.00 0.00 41 998.8
20260504193319 58 310 1.0 6.0 0.00 0.00 0.00 40 998.7
20260504192821 58 360 0.0 5.0 0.00 0.00 0.00 41 998.6
20260504192333 58 252 1.0 5.0 0.00 0.00 0.00 42 998.6
20260504191821 57 306 1.0 5.0 0.00 0.00 0.00 41 998.4
20260504191317 58 329 1.0 8.0 0.00 0.00 0.00 41 998.4
20260504190835 58 309 1.0 8.0 0.00 0.00 0.00 42 998.3
20260504190331 58 14 1.0 9.0 0.00 0.00 0.00 42 998.3
20260504185816 58 341 2.0 9.0 0.00 0.00 0.00 42 998.2
20260504185324 58 302 1.0 5.0 0.00 0.00 0.00 41 998.0
20260504184820 58 314 1.0 6.0 0.00 0.00 0.00 44 997.9
20260504184324 58 310 1.0 6.0 0.00 0.00 0.00 45 997.9
20260504183839 58 312 1.0 5.0 0.00 0.00 0.00 43 997.7
20260504183357 57 283 1.0 8.0 0.00 0.00 0.00 44 997.9
20260504182840 58 16 1.0 8.0 0.00 0.00 0.00 45 997.9
20260504182328 59 329 1.0 4.0 0.00 0.00 0.00 44 997.7
20260504181815 59 297 0.0 6.0 0.00 0.00 0.00 46 997.6
20260504181346 59 311 0.0 6.0 0.00 0.00 0.00 42 997.6
20260504180821 59 288 1.0 6.0 0.00 0.00 0.00 43 997.5
20260504180324 58 233 1.0 4.0 0.00 0.00 0.00 44 997.4
20260504175819 59 293 0.0 5.0 0.00 0.00 0.00 45 997.3
20260504175315 59 288 1.0 5.0 0.00 0.00 0.00 44 997.4
20260504174832 59 294 1.0 7.0 0.00 0.00 0.00 42 997.3
20260504174335 58 307 0.0 10.0 0.00 0.00 0.00 46 997.3
20260504173823 58 295 1.0 7.0 0.00 0.00 0.00 44 997.1
20260504173337 58 279 1.0 5.0 0.00 0.00 0.00 45 997.0
20260504172837 58 323 0.0 5.0 0.00 0.00 0.00 45 997.1
20260504172325 58 297 1.0 10.0 0.00 0.00 0.00 44 997.2
20260504171821 58 315 1.0 10.0 0.00 0.00 0.00 42 997.1
20260504171325 58 311 2.0 5.0 0.00 0.00 0.00 40 997.0
20260504170832 58 10 0.0 6.0 0.00 0.00 0.00 42 996.9
20260504170329 58 327 1.0 6.0 0.00 0.00 0.00 41 996.9
20260504160322 59 310 0.0 5.0 0.00 0.00 0.00 46 996.2
20260504150816 59 294 1.0 9.0 0.00 0.00 0.00 46 995.8
20260504150325 59 264 1.0 10.0 0.00 0.00 0.00 47 995.7
20260504141331 58 288 1.0 6.0 0.00 0.00 0.00 47 995.5
20260504140826 58 303 1.0 7.0 0.00 0.00 0.00 47 995.5
20260504140313 58 314 0.0 7.0 0.00 0.00 0.00 48 995.5
20260504130349 57 278 0.0 2.0 0.00 0.00 0.00 49 995.0
20260504110338 59 262 1.0 8.0 0.00 0.00 0.00 43 992.5
20260504100330 59 207 1.0 7.0 0.00 0.00 0.00 40 992.6
20260504081823 58 223 1.0 5.0 0.00 0.00 0.00 40 994.0
20260504081315 58 227 1.0 4.0 0.00 0.00 0.00 39 994.1
20260504080833 58 224 1.0 4.0 0.00 0.00 0.00 40 994.2
20260504080320 58 203 1.0 4.0 0.00 0.00 0.00 40 994.7
20260504070315 59 202 0.0 2.0 0.00 0.00 0.00 41 995.9
20260504050334 58 205 0.0 2.0 0.00 0.00 0.00 44 998.3
20260504045838 58 212 0.0 2.0 0.00 0.00 0.00 44 998.4
20260504045322 58 204 0.0 2.0 0.00 0.00 0.00 44 998.5
20260504044819 58 190 0.0 1.0 0.00 0.00 0.00 44 998.6
20260504044344 58 216 0.0 0.0 0.00 0.00 0.00 43 998.6
20260504043839 58 189 0.0 1.0 0.00 0.00 0.00 43 998.7
20260504043326 58 210 0.0 2.0 0.00 0.00 0.00 44 998.9
20260504042822 58 216 0.0 2.0 0.00 0.00 0.00 43 999.0
20260504042318 58 208 0.0 0.0 0.00 0.00 0.00 44 999.1
20260504041824 58 203 0.0 0.0 0.00 0.00 0.00 44 999.2
20260504041326 58 200 0.0 1.0 0.00 0.00 0.00 44 999.4
20260504040823 58 232 0.0 1.0 0.00 0.00 0.00 43 999.6
20260504040339 58 216 0.0 0.0 0.00 0.00 0.00 44 999.6
20260504035837 58 203 0.0 0.0 0.00 0.00 0.00 44 999.8
20260504035326 58 215 0.0 0.0 0.00 0.00 0.00 44 999.9
20260504034820 58 198 0.0 0.0 0.00 0.00 0.00 45 1000.0
20260504034324 58 211 0.0 0.0 0.00 0.00 0.00 45 1000.0
20260504033831 58 196 0.0 0.0 0.00 0.00 0.00 46 1000.2
20260504033328 58 200 0.0 0.0 0.00 0.00 0.00 46 1000.3
20260504032830 58 202 0.0 0.0 0.00 0.00 0.00 47 1000.3
20260504032318 58 205 0.0 0.0 0.00 0.00 0.00 47 1000.4
20260504031834 59 210 0.0 0.0 0.00 0.00 0.00 45 1000.5
20260504031315 59 208 0.0 0.0 0.00 0.00 0.00 46 1000.6
20260504030853 59 217 0.0 0.0 0.00 0.00 0.00 41 1000.7
20260504030349 59 218 0.0 0.0 0.00 0.00 0.00 40 1000.9
20260504025824 60 218 0.0 0.0 0.00 0.00 0.00 40 1000.9
20260504025320 60 217 0.0 0.0 0.00 0.00 0.00 39 1001.0
20260504024829 60 219 0.0 0.0 0.00 0.00 0.00 39 1001.0
20260504024332 60 218 0.0 0.0 0.00 0.00 0.00 38 1001.1
20260504023825 61 221 0.0 0.0 0.00 0.00 0.00 38 1001.1
20260504023338 61 227 0.0 0.0 0.00 0.00 0.00 38 1001.1
20260504022821 61 233 0.0 0.0 0.00 0.00 0.00 37 1001.2
20260504022329 62 233 0.0 0.0 0.00 0.00 0.00 36 1001.3
20260504021846 62 233 0.0 0.0 0.00 0.00 0.00 36 1001.3
20260504021328 62 232 0.0 0.0 0.00 0.00 0.00 35 1001.3
20260504020845 63 232 0.0 0.0 0.00 0.00 0.00 34 1001.3
20260504020331 63 232 0.0 0.0 0.00 0.00 0.00 34 1001.3
20260504015822 63 250 0.0 0.0 0.00 0.00 0.00 34 1001.3
20260504015329 64 238 0.0 0.0 0.00 0.00 0.00 33 1001.3
20260504014845 64 241 0.0 0.0 0.00 0.00 0.00 33 1001.3
20260504014322 64 240 0.0 0.0 0.00 0.00 0.00 32 1001.3
20260504013837 65 247 0.0 0.0 0.00 0.00 0.00 32 1001.3
20260504013333 65 248 0.0 0.0 0.00 0.00 0.00 31 1001.3
20260504012831 66 229 0.0 0.0 0.00 0.00 0.00 30 1001.4
20260504012319 66 261 0.0 0.0 0.00 0.00 0.00 30 1001.4
20260504011817 66 232 0.0 0.0 0.00 0.00 0.00 29 1001.4
20260504011319 67 252 0.0 0.0 0.00 0.00 0.00 29 1001.4
20260504010827 67 266 0.0 0.0 0.00 0.00 0.00 29 1001.4
20260504010343 67 256 0.0 0.0 0.00 0.00 0.00 28 1001.4
20260504005856 67 241 0.0 0.0 0.00 0.00 0.00 28 1001.4
20260504005321 68 267 0.0 0.0 0.00 0.00 0.00 28 1001.4
20260504004837 68 254 0.0 0.0 0.00 0.00 0.00 27 1001.4
20260504004342 68 257 0.0 0.0 0.00 0.00 0.00 27 1001.5
20260504003829 68 259 0.0 0.0 0.00 0.00 0.00 27 1001.5
20260504003346 68 298 0.0 0.0 0.00 0.00 0.00 26 1001.5